CW4489 Marathon FL US current weather conditions

sailwx.info

Wind from 291 at 4 knots gusting 6

Air temperature 28.9° C
Dewpoint 22.1° C

Last reported at 2014-Oct-31 19:50 UTC.
Time now 2014-Nov-01 11:49 UTC

Location: N 24°44' W 081°02'.
View on Google Maps.

See reports from other nearby stations

  
Tides and Currents Weather Stations Pressure Air Temp Water Temp Dewpoint Dewpoint Depression Visibility Wind Speed Wind Dir Waves Ship Positions
date/time (UTC)wind fromknots sea level pressurealtimeterstation pressurevisibilityair tempwater tempwave heightnotes
2014-Oct-31 19:50 291 4 gusting 6 28.9
2014-Oct-31 19:40 281 5 gusting 7 28.9
2014-Oct-31 19:20 299 4 gusting 10 28.9
2014-Oct-31 19:10 282 4 gusting 8 28.9
2014-Oct-31 18:50 270 4 gusting 6 28.9
2014-Oct-31 18:40 321 6 gusting 9 28.9
2014-Oct-31 18:20 254 4 gusting 7 28.9
2014-Oct-31 18:00 209 5 gusting 8 28.9
2014-Oct-31 17:40 230 2 gusting 6 28.9
2014-Oct-31 17:30 242 2 gusting 6 29.4
2014-Oct-31 17:20 281 2 gusting 7 29.4
2014-Oct-31 17:10 223 2 gusting 6 29.4
2014-Oct-31 17:00 221 2 gusting 3 29.4
2014-Oct-31 15:30 232 2 gusting 4 28.9
2014-Oct-31 15:20 260 2 gusting 6 28.9
2014-Oct-31 15:10 286 0 gusting 7 28.3
2014-Oct-31 15:00 244 2 gusting 6 28.3
2014-Oct-31 14:50 260 2 gusting 6 28.3
2014-Oct-31 14:30 256 3 gusting 5 27.8
2014-Oct-31 14:00 286 2 gusting 5 27.2
2014-Oct-31 13:40 242 4 gusting 4 26.7
2014-Oct-31 13:20 277 26.1
2014-Oct-31 13:10 277 2 gusting 3 26.1
2014-Oct-31 12:50 280 25.0
2014-Oct-31 12:40 277 3 gusting 4 24.4
2014-Oct-31 12:10 203 2 gusting 2 23.9
2014-Oct-31 12:00 203 0 gusting 2 23.9
2014-Oct-31 11:50 203 23.9
2014-Oct-31 11:30 203 23.9
2014-Oct-31 11:20 203 23.9
2014-Oct-31 11:10 203 0 gusting 2 23.9
2014-Oct-31 11:00 203 23.9
2014-Oct-31 10:50 203 2 gusting 2 23.9
2014-Oct-31 10:40 203 0 gusting 2 23.9
2014-Oct-31 10:30 203 2 gusting 2 23.9
2014-Oct-31 10:20 203 0 gusting 2 23.9
2014-Oct-31 10:10 203 0 gusting 2 23.9
2014-Oct-31 10:00 203 0 gusting 2 23.9
2014-Oct-31 09:40 203 23.9
2014-Oct-31 09:30 204 0 gusting 1 23.9
2014-Oct-31 08:50 203 0 gusting 2 23.9
2014-Oct-31 08:40 203 0 gusting 2 23.9
2014-Oct-31 08:30 203 1 gusting 1 23.9
2014-Oct-31 08:20 203 1 gusting 1 23.9
2014-Oct-31 08:00 203 23.9
2014-Oct-31 07:40 203 0 gusting 2 24.4
2014-Oct-31 07:20 203 24.4
2014-Oct-31 06:30 203 0 gusting 2 24.4
2014-Oct-31 06:20 203 1 gusting 2 24.4
2014-Oct-31 05:50 203 0 gusting 1 24.4
2014-Oct-31 05:40 203 0 gusting 2 24.4
2014-Oct-31 05:30 203 0 gusting 2 23.9
2014-Oct-31 05:20 203 23.9
2014-Oct-31 05:00 203 0 gusting 1 24.4
2014-Oct-31 04:50 203 23.9
2014-Oct-31 04:40 203 23.9
2014-Oct-31 04:30 203 23.9
2014-Oct-31 04:10 203 24.4
2014-Oct-31 04:00 203 24.4
2014-Oct-31 03:50 203 24.4
2014-Oct-31 03:40 203 24.4
2014-Oct-31 03:30 203 24.4
2014-Oct-31 03:20 203 24.4
2014-Oct-31 02:50 203 24.4
2014-Oct-31 02:30 203 23.9
2014-Oct-31 02:20 203 23.9
2014-Oct-31 02:00 203 24.4
2014-Oct-31 01:10 203 25.0
2014-Oct-31 01:00 204 25.0
2014-Oct-31 00:50 203 25.0
2014-Oct-31 00:20 203 25.6
2014-Oct-31 00:10 203 25.6
2014-Oct-30 23:50 203 25.6
2014-Oct-30 23:49 203 25.6
2014-Oct-30 23:20 203 26.1
2014-Oct-30 23:00 203 26.7
2014-Oct-30 22:50 203 0 gusting 0 27.2
2014-Oct-30 22:10 203 0 gusting 2 28.3
2014-Oct-30 21:30 203 2 gusting 4 28.9
2014-Oct-30 21:20 203 2 gusting 3 29.4
2014-Oct-30 21:10 214 1 gusting 3 30.0
2014-Oct-30 21:00 190 0 gusting 3 30.0
2014-Oct-30 20:50 210 1 gusting 4 30.0
2014-Oct-30 20:30 337 30.6
2014-Oct-30 20:20 337 0 gusting 1 30.6
2014-Oct-30 20:10 337 1 gusting 2 30.6
2014-Oct-30 20:00 337 30.6
2014-Oct-30 19:50 337 0 gusting 2 30.6
2014-Oct-30 19:20 337 2 gusting 3 29.4
2014-Oct-30 19:10 320 2 gusting 3 29.4
2014-Oct-30 19:00 355 2 gusting 3 29.4
2014-Oct-30 18:30 315 1 gusting 3 29.4
2014-Oct-30 18:20 355 2 gusting 4 29.4
2014-Oct-30 18:00 355 2 gusting 2 30.0
2014-Oct-30 17:40 338 0 gusting 3 29.4
2014-Oct-30 17:20 011 29.4
2014-Oct-30 17:10 005 2 gusting 4 29.4
2014-Oct-30 17:00 346 2 gusting 5 29.4
2014-Oct-30 16:50 017 1 gusting 5 30.0
2014-Oct-30 16:40 054 0 gusting 5 29.4
2014-Oct-30 16:30 028 0 gusting 4 29.4
2014-Oct-30 16:20 355 0 gusting 5 29.4
2014-Oct-30 16:10 355 3 gusting 3 30.6
2014-Oct-30 16:00 082 30.6
2014-Oct-30 15:40 040 0 gusting 3 30.0
2014-Oct-30 15:30 055 1 gusting 2 30.0
2014-Oct-30 15:20 342 2 gusting 2 30.0
2014-Oct-30 15:00 059 0 gusting 2 28.9
2014-Oct-30 14:40 048 28.3
2014-Oct-30 14:30 047 27.8
2014-Oct-30 14:20 024 27.2
2014-Oct-30 14:10 040 0 gusting 2 27.8
2014-Oct-30 14:00 076 2 gusting 3 27.8
2014-Oct-30 13:50 047 26.7
2014-Oct-30 13:40 021 26.7
2014-Oct-30 13:30 033 0 gusting 2 26.1
2014-Oct-30 13:10 032 0 gusting 2 25.6
2014-Oct-30 13:00 043 25.0
2014-Oct-30 12:40 355 2 gusting 2 24.4
2014-Oct-30 12:20 056 1 gusting 2 23.9
2014-Oct-30 12:10 056 1 gusting 1 23.3
2014-Oct-30 12:00 056 23.3
2014-Oct-30 11:20 053 23.3
2014-Oct-30 11:10 053 23.3